�������l�o���
Date,Time,MP-1(��Sv/h),MP-2(��Sv/h),MP-3(��Sv/h),MP-4(��Sv/h),MP-5(��Sv/h),MP-6(��Sv/h),MP-7(��Sv/h),����,����(m/s),���J
2018/09/13,00:00,0.305,0.189,0.305,0.294,0.278,0.151,0.093,�쐼,1.9,��
2018/09/13,00:10,0.306,0.188,0.304,0.295,0.281,0.150,0.092,��쐼,2.2,��
2018/09/13,00:20,0.306,0.189,0.305,0.294,0.278,0.151,0.093,�쐼,1.7,��
2018/09/13,00:30,0.306,0.187,0.305,0.296,0.282,0.150,0.093,��쐼,2.4,��
2018/09/13,00:40,0.305,0.190,0.306,0.293,0.280,0.151,0.093,��쐼,1.8,��
2018/09/13,00:50,0.305,0.187,0.305,0.294,0.280,0.150,0.092,�쐼,2.5,��
2018/09/13,01:00,0.305,0.188,0.306,0.292,0.279,0.150,0.092,��쐼,2.7,��
2018/09/13,01:10,0.306,0.188,0.305,0.295,0.281,0.150,0.093,��쐼,2.7,��
2018/09/13,01:20,0.305,0.188,0.306,0.293,0.280,0.152,0.092,��쐼,2.9,��
2018/09/13,01:30,0.305,0.188,0.305,0.294,0.280,0.149,0.093,�쐼,2.5,��
2018/09/13,01:40,0.305,0.188,0.305,0.293,0.280,0.151,0.093,�쐼,3.0,��
2018/09/13,01:50,0.306,0.189,0.305,0.295,0.279,0.151,0.093,�쐼,2.8,��
2018/09/13,02:00,0.306,0.189,0.305,0.294,0.281,0.151,0.092,�쐼,2.2,�L
2018/09/13,02:10,0.305,0.188,0.305,0.295,0.278,0.150,0.092,��쐼,1.4,��
2018/09/13,02:20,0.305,0.188,0.306,0.293,0.281,0.151,0.093,��쐼,2.2,��
2018/09/13,02:30,0.304,0.187,0.304,0.295,0.277,0.151,0.093,��쐼,2.6,��
2018/09/13,02:40,0.306,0.188,0.305,0.294,0.282,0.151,0.093,��쐼,2.6,��
2018/09/13,02:50,0.305,0.188,0.305,0.294,0.279,0.150,0.093,��쐼,2.6,��
2018/09/13,03:00,0.306,0.189,0.306,0.294,0.281,0.151,0.093,�쐼,2.6,��
2018/09/13,03:10,0.304,0.189,0.305,0.295,0.278,0.150,0.093,��쐼,2.3,��
2018/09/13,03:20,0.306,0.188,0.306,0.293,0.281,0.151,0.093,��쐼,2.2,��
2018/09/13,03:30,0.303,0.189,0.304,0.296,0.279,0.150,0.093,�쐼,2.6,��
2018/09/13,03:40,0.307,0.188,0.306,0.294,0.281,0.150,0.093,�쐼,2.6,��
2018/09/13,03:50,0.304,0.189,0.304,0.295,0.280,0.151,0.092,�쐼,2.8,��
2018/09/13,04:00,0.306,0.190,0.307,0.292,0.279,0.152,0.093,�쐼,2.8,��
2018/09/13,04:10,0.304,0.189,0.305,0.295,0.282,0.150,0.093,��쐼,2.1,��
2018/09/13,04:20,0.307,0.187,0.307,0.293,0.280,0.150,0.093,��쐼,2.4,��
2018/09/13,04:30,0.305,0.189,0.304,0.296,0.282,0.150,0.093,��쐼,2.7,��
2018/09/13,04:40,0.305,0.188,0.305,0.294,0.278,0.150,0.092,��쐼,2.5,��
2018/09/13,04:50,0.304,0.189,0.304,0.295,0.282,0.150,0.093,��쐼,2.7,��
2018/09/13,05:00,0.306,0.189,0.306,0.293,0.279,0.151,0.093,�쐼,2.7,��
2018/09/13,05:10,0.307,0.189,0.305,0.294,0.283,0.150,0.093,-,CALM,��
2018/09/13,05:20,0.307,0.189,0.305,0.293,0.280,0.151,0.093,-,CALM,��
2018/09/13,05:30,0.306,0.189,0.304,0.296,0.280,0.151,0.093,-,CALM,��
2018/09/13,05:40,0.306,0.189,0.307,0.293,0.280,0.150,0.093,-,CALM,��
2018/09/13,05:50,0.307,0.188,0.305,0.295,0.281,0.151,0.092,-,CALM,��
2018/09/13,06:00,0.304,0.190,0.306,0.294,0.281,0.150,0.093,�k�k��,0.7,��
2018/09/13,06:10,0.305,0.189,0.306,0.296,0.280,0.151,0.094,�k��,0.7,��
2018/09/13,06:20,0.306,0.189,0.305,0.294,0.283,0.150,0.093,��,0.7,��
2018/09/13,06:30,0.306,0.189,0.307,0.295,0.279,0.152,0.092,-,CALM,��
2018/09/13,06:40,0.303,0.188,0.304,0.294,0.281,0.151,0.092,���쐼,0.7,��
2018/09/13,06:50,0.308,0.188,0.306,0.294,0.280,0.151,0.094,�쐼,1.6,��
2018/09/13,07:00,0.304,0.187,0.305,0.295,0.280,0.151,0.094,��쐼,1.5,��
2018/09/13,07:10,0.306,0.190,0.307,0.293,0.280,0.150,0.092,��쐼,1.5,��
2018/09/13,07:20,0.306,0.188,0.304,0.294,0.278,0.151,0.092,��쐼,1.7,��
2018/09/13,07:30,0.305,0.190,0.306,0.295,0.282,0.150,0.092,�쐼,1.2,��
2018/09/13,07:40,0.308,0.188,0.304,0.293,0.280,0.151,0.093,��쐼,1.5,��
2018/09/13,07:50,0.304,0.187,0.305,0.296,0.278,0.151,0.093,��쐼,2.3,��
2018/09/13,08:00,0.305,0.190,0.307,0.294,0.282,0.149,0.093,��,2.2,�L
2018/09/13,08:10,0.307,0.189,0.305,0.292,0.282,0.152,0.093,��,1.6,��
2018/09/13,08:20,0.304,0.187,0.306,0.295,0.279,0.151,0.094,��쓌,1.3,��
2018/09/13,08:30,0.305,0.189,0.307,0.294,0.278,0.150,0.093,�쓌,1.8,��
2018/09/13,08:40,0.307,0.189,0.303,0.292,0.283,0.152,0.092,��쓌,2.0,��
2018/09/13,08:50,0.305,0.188,0.305,0.293,0.281,0.152,0.094,�쓌,1.2,��
2018/09/13,09:00,0.305,0.190,0.306,0.295,0.278,0.150,0.094,��쓌,1.4,��
2018/09/13,09:10,0.309,0.189,0.305,0.292,0.280,0.151,0.093,��쓌,2.0,��
2018/09/13,09:20,0.305,0.188,0.305,0.293,0.282,0.152,0.093,��쓌,1.2,��
2018/09/13,09:30,0.304,0.188,0.306,0.296,0.280,0.151,0.093,��쓌,1.8,��
2018/09/13,09:40,0.306,0.189,0.303,0.294,0.278,0.150,0.094,��쓌,2.7,��
2018/09/13,09:50,0.307,0.189,0.304,0.292,0.281,0.151,0.092,��,3.3,��
2018/09/13,10:00,0.304,0.188,0.306,0.295,0.283,0.151,0.092,��,4.2,�L
2018/09/13,10:10,0.304,0.189,0.304,0.296,0.281,0.151,0.093,��,5.5,��
2018/09/13,10:20,0.308,0.189,0.304,0.294,0.276,0.151,0.092,��,4.8,��
2018/09/13,10:30,0.305,0.188,0.307,0.295,0.281,0.152,0.093,��,4.0,��
2018/09/13,10:40,0.303,0.187,0.303,0.297,0.282,0.151,0.093,��쓌,2.3,��
2018/09/13,10:50,0.307,0.189,0.301,0.295,0.280,0.151,0.093,��쓌,2.6,��
2018/09/13,11:00,0.308,0.190,0.306,0.293,0.278,0.152,0.093,�쓌,2.2,�L
2018/09/13,11:10,0.306,0.189,0.306,0.295,0.279,0.152,0.092,�쓌,2.0,�L
2018/09/13,11:20,0.303,0.188,0.304,0.295,0.283,0.151,0.094,�쓌,2.2,��
2018/09/13,11:30,0.303,0.188,0.304,0.294,0.281,0.151,0.093,�쓌,2.1,��
2018/09/13,11:40,0.307,0.189,0.307,0.292,0.280,0.152,0.093,�쓌,1.1,��
2018/09/13,11:50,0.307,0.189,0.305,0.296,0.279,0.150,0.093,��쓌,1.5,�L
2018/09/13,12:00,0.305,0.189,0.302,0.297,0.279,0.150,0.092,��,2.8,�L
2018/09/13,12:10,0.304,0.188,0.302,0.293,0.282,0.151,0.094,��,3.4,�L
2018/09/13,12:20,0.302,0.187,0.307,0.292,0.282,0.151,0.093,��,4.2,�L
2018/09/13,12:30,0.306,0.187,0.306,0.294,0.280,0.151,0.092,��,4.0,��
2018/09/13,12:40,0.309,0.189,0.303,0.296,0.278,0.151,0.093,��쓌,2.5,�L
2018/09/13,12:50,0.306,0.190,0.303,0.293,0.280,0.151,0.093,��쓌,2.1,��
2018/09/13,13:00,0.303,0.189,0.307,0.293,0.283,0.151,0.093,�쓌,1.7,��
2018/09/13,13:10,0.302,0.187,0.306,0.294,0.281,0.152,0.092,��쓌,2.3,��
2018/09/13,13:20,0.307,0.187,0.305,0.296,0.278,0.151,0.092,��쓌,2.3,��
2018/09/13,13:30,0.308,0.187,0.302,0.295,0.278,0.150,0.092,��쓌,2.0,��
2018/09/13,13:40,0.305,0.188,0.305,0.293,0.277,0.151,0.093,��쓌,2.5,��
2018/09/13,13:50,0.304,0.189,0.307,0.292,0.280,0.152,0.092,�쓌,1.6,��
2018/09/13,14:00,0.303,0.188,0.306,0.296,0.283,0.151,0.093,��쓌,1.4,��
2018/09/13,14:10,0.308,0.188,0.304,0.296,0.282,0.151,0.092,��쓌,1.7,��
2018/09/13,14:20,0.306,0.191,0.308,0.292,0.277,0.150,0.093,��쓌,2.2,��
2018/09/13,14:30,0.304,0.190,0.306,0.296,0.281,0.152,0.093,��쓌,2.4,��
2018/09/13,14:40,0.307,0.189,0.303,0.298,0.285,0.150,0.092,��쓌,2.1,��
2018/09/13,14:50,0.308,0.188,0.306,0.294,0.281,0.150,0.092,��쓌,2.8,��
2018/09/13,15:00,0.307,0.189,0.308,0.294,0.279,0.151,0.093,��,3.3,��
2018/09/13,15:10,0.303,0.189,0.304,0.297,0.280,0.152,0.092,��쐼,3.3,��
2018/09/13,15:20,0.307,0.189,0.303,0.295,0.283,0.151,0.092,��쐼,4.6,��
2018/09/13,15:30,0.309,0.188,0.307,0.293,0.279,0.151,0.092,��쐼,4.5,��
2018/09/13,15:40,0.306,0.190,0.307,0.295,0.278,0.151,0.093,��,5.0,��
2018/09/13,15:50,0.303,0.189,0.303,0.297,0.279,0.152,0.093,��,4.7,��
2018/09/13,16:00,0.305,0.188,0.306,0.295,0.282,0.151,0.093,��,5.4,��
2018/09/13,16:10,0.308,0.187,0.307,0.294,0.281,0.151,0.092,��,5.1,��
2018/09/13,16:20,0.306,0.190,0.304,0.296,0.278,0.151,0.093,��,4.0,��
2018/09/13,16:30,0.303,0.189,0.306,0.295,0.282,0.151,0.093,��,3.1,��
2018/09/13,16:40,0.308,0.187,0.306,0.293,0.283,0.151,0.093,��쐼,3.6,��
2018/09/13,16:50,0.308,0.190,0.305,0.296,0.280,0.151,0.093,��쐼,4.7,��
2018/09/13,17:00,0.302,0.188,0.305,0.297,0.279,0.152,0.093,��쐼,4.7,��
2018/09/13,17:10,0.307,0.188,0.307,0.293,0.284,0.151,0.092,��쐼,5.7,��
2018/09/13,17:20,0.307,0.190,0.304,0.295,0.280,0.151,0.093,��쐼,7.5,��
2018/09/13,17:30,0.305,0.188,0.306,0.296,0.280,0.152,0.093,��쐼,7.0,��
2018/09/13,17:40,0.306,0.189,0.307,0.294,0.284,0.151,0.093,��쐼,7.6,��
2018/09/13,17:50,0.308,0.190,0.305,0.297,0.281,0.151,0.093,��쐼,8.2,��
2018/09/13,18:00,0.305,0.188,0.308,0.297,0.280,0.151,0.093,��쐼,7.1,��
2018/09/13,18:10,0.308,0.189,0.308,0.294,0.283,0.152,0.093,��쐼,6.7,��
2018/09/13,18:20,0.308,0.189,0.303,0.296,0.280,0.150,0.093,��쐼,6.7,��
2018/09/13,18:30,0.304,0.189,0.308,0.297,0.280,0.152,0.092,��쐼,6.8,��
2018/09/13,18:40,0.307,0.190,0.307,0.293,0.282,0.151,0.092,��쐼,6.1,��
2018/09/13,18:50,0.307,0.188,0.303,0.296,0.280,0.151,0.093,��쐼,7.9,��
2018/09/13,19:00,0.304,0.189,0.307,0.297,0.280,0.152,0.093,��쐼,7.3,��
2018/09/13,19:10,0.308,0.189,0.305,0.294,0.283,0.151,0.092,��쐼,7.6,��
2018/09/13,19:20,0.305,0.188,0.304,0.297,0.279,0.151,0.093,��쐼,6.2,��
2018/09/13,19:30,0.305,0.189,0.308,0.295,0.282,0.152,0.093,��쐼,6.9,��
2018/09/13,19:40,0.307,0.188,0.305,0.295,0.282,0.151,0.092,��쐼,7.1,��
2018/09/13,19:50,0.305,0.188,0.306,0.297,0.279,0.152,0.093,��쐼,7.1,��
2018/09/13,20:00,0.308,0.188,0.306,0.294,0.283,0.151,0.092,��쐼,6.4,��
2018/09/13,20:10,0.307,0.188,0.304,0.296,0.279,0.151,0.094,��쐼,6.8,��
2018/09/13,20:20,0.305,0.189,0.308,0.297,0.280,0.152,0.093,��쐼,5.9,��
2018/09/13,20:30,0.309,0.188,0.306,0.295,0.283,0.151,0.092,��쐼,6.3,��
2018/09/13,20:40,0.306,0.189,0.305,0.298,0.280,0.152,0.093,��쐼,5.5,��
2018/09/13,20:50,0.308,0.188,0.307,0.295,0.282,0.152,0.093,��쐼,5.6,��
2018/09/13,21:00,0.306,0.190,0.305,0.295,0.281,0.151,0.093,��쐼,6.2,��
2018/09/13,21:10,0.306,0.189,0.307,0.297,0.279,0.152,0.092,��쐼,5.6,��
2018/09/13,21:20,0.308,0.188,0.305,0.294,0.283,0.152,0.092,��쐼,7.1,��
2018/09/13,21:30,0.305,0.188,0.305,0.295,0.281,0.151,0.093,��쐼,6.9,��
2018/09/13,21:40,0.308,0.188,0.308,0.297,0.281,0.152,0.092,��쐼,6.6,��
2018/09/13,21:50,0.306,0.189,0.304,0.295,0.283,0.151,0.094,��쐼,6.7,��
2018/09/13,22:00,0.306,0.190,0.308,0.297,0.279,0.152,0.093,��쐼,7.1,��
2018/09/13,22:10,0.309,0.190,0.306,0.295,0.281,0.151,0.093,��쐼,6.7,��
2018/09/13,22:20,0.306,0.188,0.306,0.295,0.281,0.151,0.094,��쐼,6.0,��
2018/09/13,22:30,0.308,0.190,0.308,0.297,0.280,0.153,0.092,��쐼,5.6,��
2018/09/13,22:40,0.305,0.190,0.304,0.295,0.283,0.151,0.093,��쐼,5.5,��
2018/09/13,22:50,0.307,0.190,0.307,0.298,0.281,0.151,0.093,��쐼,5.6,��
2018/09/13,23:00,0.306,0.189,0.306,0.296,0.281,0.150,0.093,��쐼,6.4,��
2018/09/13,23:10,0.305,0.190,0.308,0.296,0.282,0.150,0.093,��쐼,6.3,��
2018/09/13,23:20,0.307,0.189,0.306,0.297,0.279,0.152,0.093,��쐼,5.7,��
2018/09/13,23:30,0.305,0.189,0.306,0.295,0.283,0.151,0.093,��쐼,5.5,��
2018/09/13,23:40,0.309,0.190,0.307,0.296,0.280,0.152,0.092,��쐼,6.6,��
2018/09/13,23:50,0.306,0.189,0.305,0.296,0.282,0.152,0.093,��쐼,6.3,��
